Regional Weather Roundup
Issued by NWS

Home | Current Version | Previous Version | Text Only | Print | Product List | Glossary Off
Versions: 1 2 3 4 5 6 7 8 9 10 11 12 13 14 15 16 17 18 19 20 21 22 23 24 25 26 27 28 29 30 31 32 33 34 35 36 37 38 39 40 41 42 43 44 45 46 47 48 49 50

000
ASUS44 KMEG 010610
RWRTN
TENNESSEE HOURLY STATE WEATHER ROUNDUP
NATIONAL WEATHER SERVICE MEMPHIS TN
100 AM CDT WED JUL 01 2015

TNZ002-004-019-021-049-052-054-088>092-010700-
WEST TENNESSEE

CITY           SKY/WX    TMP DP  RH WIND       PRES   REMARKS
MEMPHIS INTL   PTCLDY    76  71  85 S7        29.98
NWS MEMPHIS      N/A     76 N/A N/A MISG        N/A
JACKSON        CLEAR     75  72  90 SW7       29.97
DYERSBURG        N/A    N/A N/A N/A MISG        N/A
PARIS          CLEAR     72  68  88 SW6       29.95F
LEXINGTON      MOCLDY    73  72  94 S6        29.97S
$$

TNZ008-025-027-028-033-062-065-066-010700-
NORTH MIDDLE TENNESSEE

CITY           SKY/WX    TMP DP  RH WIND       PRES   REMARKS
NASHVILLE      PTCLDY    76  73  91 SW8       29.96
CLARKSVILLE    MOCLDY    74  69  85 SW7       29.94
SMYRNA         PTCLDY    76  72  87 SW10      29.97S
COOKEVILLE     CLEAR     70  70 100 CALM      29.99R
CROSSVILLE     PTCLDY    70  66  87 W5        30.03
$$

TNZ061-075-076-078-094-096-097-010700-
SOUTH MIDDLE TENNESSEE

CITY           SKY/WX    TMP DP  RH WIND       PRES   REMARKS
FAYETTEVILLE   CLEAR     70  70 100 SW7       30.03F
TULLAHOMA      CLEAR     72  68  88 SW7       30.03S
WINCHESTER     CLEAR     73  68  83 SW6       30.03S
MCMINNVILLE    PTCLDY    72  72 100 SW7       30.01S
COLUMBIA       CLEAR     73  73 100 SW7       29.98S
SHELBYVILLE    CLEAR     73  72  94 SW7       30.01S
$$

TNZ017-018-042-046-047-010700-
NORTHEAST TENNESSEE

CITY           SKY/WX    TMP DP  RH WIND       PRES   REMARKS
TRI CITIES     MOCLDY    68  65  90 W6        30.00
ELIZABETHTON   PTCLDY    63  63 100 CALM      30.00S
$$

TNZ012-013-036-069-073-074-010700-
CENTRAL EAST TENNESSEE

CITY           SKY/WX    TMP DP  RH WIND       PRES   REMARKS
KNOXVILLE      PTCLDY    69  66  90 S6        29.98
OAK RIDGE      CLEAR     68  66  93 SW3       30.00S FOG
GATLINBURG     CLEAR     66  66 100 CALM      29.98F
MORRISTOWN     CLEAR     70  64  83 CALM      30.00S
$$

TNZ083-085-099-010700-
SOUTHEAST TENNESSEE

CITY           SKY/WX    TMP DP  RH WIND       PRES   REMARKS
CHATTANOOGA    MOCLDY    75  67  76 SW10      30.01
$$

SKY/WX REPORTED AS FAIR MEANS FEW OR NO CLOUDS BELOW
12 THOUSAND FEET.



USA.gov is the U.S. government's official web portal to all federal, state and local government web resources and services.